Oxford, MS

2:49 PM CST on February 20, 2017 (GMT -0600)
University-Oxford

Weather History for KUOX - January, 2013

Change the Weather History Date:

Friday, January 25, 2013

  Actual Average Record
Temperature  
Mean Temperature 45 °F -  
Max Temperature 55 °F 52 °F 80 °F (1950)
Min Temperature 33 °F 30 °F 1 °F (1963)
Degree Days  
Heating Degree Days 20    
Moisture  
Dew Point 38 °F    
Average Humidity 86    
Maximum Humidity 100    
Minimum Humidity 46    
Precipitation  
Precipitation 0.05 in - - ()
Sea Level Pressure  
Sea Level Pressure 30.17 in    
Wind  
Wind Speed 4 mph (North)    
Max Wind Speed 15 mph    
Max Gust Speed 21 mph    
Visibility 6 miles    
Events Rain    
Averages and records for this station are not official NWS values.
T = Trace of Precipitation, MM = Missing Value Source: NWS Daily Summary

Daily Weather History Graph

Daily Weather History Graph

Search for Another Location

Airport or City:

Trip Planner

Search our weather history database for the weather conditions in past years. The results will help you decide how hot, cold, wet, or windy it might be!

Date:

Astronomy

Jan. 25, 2013 Rise Set
Actual Time 7:00 AM CST 5:21 PM CST
Civil Twilight 6:33 AM CST 5:48 PM CST
Nautical Twilight 6:03 AM CST 6:18 PM CST
Astronomical Twilight 5:33 AM CST 6:48 PM CST
Moon 4:18 PM CST (1/25) 5:39 AM CST (1/25)
Length of Visible Light 11h 14m
Length of Day
10h 21m
Waxing Gibbous, 98% of the Moon is Illuminated
Jan 25
Waxing Gibbous
Jan 26
Full
Feb 3
Last Quarter
Feb 10
New
Feb 17
First Quarter

Hourly Weather History & Observations

Time (CST) Temp. Windchill Dew Point Humidity Pressure Visibility Wind Dir Wind Speed Gust Speed Precip Events Conditions
12:15 AM 42.8 °F 41.1 °F 24.8 °F 49% 30.22 in 10.0 mi ESE 3.5 mph - N/A   Overcast
12:55 AM 42.8 °F - 24.8 °F 49% 30.21 in 9.0 mi Calm Calm - N/A   Overcast
1:15 AM 42.8 °F 41.1 °F 24.8 °F 49% 30.19 in 10.0 mi SSE 3.5 mph - N/A   Overcast
1:35 AM 42.8 °F 41.1 °F 24.8 °F 49% 30.19 in 10.0 mi South 3.5 mph - N/A   Overcast
1:55 AM 44.6 °F - 24.8 °F 46% 30.19 in 10.0 mi Calm Calm - N/A   Overcast
2:15 AM 44.6 °F 42.2 °F 26.6 °F 49% 30.19 in 10.0 mi SSW 4.6 mph - N/A   Overcast
2:55 AM 44.6 °F 42.2 °F 26.6 °F 49% 30.15 in 10.0 mi SSE 4.6 mph - N/A   Overcast
3:15 AM 44.6 °F 43.1 °F 28.4 °F 53% 30.14 in 10.0 mi SSE 3.5 mph - N/A   Overcast
3:55 AM 46.4 °F 44.3 °F 32.0 °F 57% 30.13 in 10.0 mi SSE 4.6 mph - N/A   Overcast
4:15 AM 46.4 °F 45.2 °F 32.0 °F 57% 30.12 in 10.0 mi SSE 3.5 mph - N/A   Overcast
4:55 AM 48.2 °F - 35.6 °F 62% 30.13 in 9.0 mi Calm Calm - N/A   Overcast
5:15 AM 48.2 °F - 37.4 °F 66% 30.12 in 10.0 mi South 3.5 mph - N/A   Overcast
5:35 AM 48.2 °F - 39.2 °F 71% 30.12 in 9.0 mi Calm Calm - N/A   Overcast
5:55 AM 48.2 °F - 39.2 °F 71% 30.11 in 10.0 mi South 3.5 mph - N/A   Overcast
6:15 AM 48.2 °F - 41.0 °F 76% 30.11 in 10.0 mi Calm Calm - N/A   Overcast
6:35 AM 50.0 °F - 41.0 °F 71% 30.10 in 10.0 mi South 3.5 mph - N/A   Overcast
6:55 AM 50.0 °F - 44.6 °F 82% 30.10 in 9.0 mi South 3.5 mph - N/A   Overcast
7:15 AM 51.8 °F - 46.4 °F 82% 30.10 in 8.0 mi SSW 4.6 mph - N/A   Overcast
7:35 AM 53.6 °F - 48.2 °F 82% 30.10 in 7.0 mi SSW 5.8 mph - N/A   Overcast
7:55 AM 53.6 °F - 50.0 °F 88% 30.11 in 6.0 mi SW 6.9 mph - N/A   Overcast
8:15 AM 53.6 °F - 50.0 °F 88% 30.13 in 7.0 mi West 4.6 mph - N/A   Overcast
8:35 AM 53.6 °F - 50.0 °F 88% 30.15 in 3.0 mi West 3.5 mph - N/A Rain Light Rain
8:55 AM 53.6 °F - 50.0 °F 88% 30.13 in 2.5 mi SSW 3.5 mph - 0.01 in Rain Light Rain
9:15 AM 55.4 °F - 53.6 °F 94% 30.13 in 5.0 mi WSW 11.5 mph 19.6 mph N/A   Overcast
9:35 AM 55.4 °F - 53.6 °F 94% 30.14 in 3.0 mi WSW 11.5 mph 20.7 mph N/A Rain Light Rain
9:55 AM 55.4 °F - 53.6 °F 94% 30.15 in 3.0 mi West 9.2 mph 20.7 mph N/A   Overcast
10:15 AM 55.4 °F - 53.6 °F 94% 30.16 in 1.8 mi NW 15.0 mph 19.6 mph N/A Rain Light Rain
10:55 AM 41.0 °F 34.7 °F 39.2 °F 93% 30.19 in 1.2 mi NNW 10.4 mph - 0.02 in Rain Light Rain
11:15 AM 39.2 °F 32.5 °F 39.2 °F 100% 30.20 in 1.2 mi North 10.4 mph - N/A Rain Light Rain
11:35 AM 39.2 °F 37.0 °F 37.4 °F 93% 30.19 in 1.5 mi North 3.5 mph - N/A Rain Light Rain
11:55 AM 39.2 °F 37.0 °F 37.4 °F 93% 30.18 in 1.0 mi North 3.5 mph - 0.01 in Rain Light Rain
12:15 PM 39.2 °F 37.0 °F 39.2 °F 100% 30.17 in 1.0 mi North 3.5 mph - N/A Rain Light Rain
12:35 PM 39.2 °F 35.0 °F 39.2 °F 100% 30.16 in 1.5 mi NNW 5.8 mph - N/A Rain Light Rain
12:55 PM 39.2 °F 35.0 °F 37.4 °F 93% 30.16 in 2.0 mi NNW 5.8 mph - 0.01 in Rain Light Rain
1:15 PM 39.2 °F 37.0 °F 39.2 °F 100% 30.15 in 1.5 mi NNW 3.5 mph - N/A Rain Light Rain
1:35 PM 39.2 °F 37.0 °F 39.2 °F 100% 30.15 in 1.2 mi NNW 3.5 mph - N/A Rain Light Rain
1:55 PM 39.2 °F 35.9 °F 39.2 °F 100% 30.15 in 1.2 mi NNW 4.6 mph - N/A Rain Light Rain
2:15 PM 39.2 °F - 39.2 °F 100% 30.15 in 1.2 mi Calm Calm - N/A Rain Light Rain
2:35 PM 39.2 °F 37.0 °F 39.2 °F 100% 30.15 in 1.8 mi North 3.5 mph - N/A Rain Light Rain
2:55 PM 39.2 °F 35.0 °F 39.2 °F 100% 30.16 in 7.0 mi North 5.8 mph - N/A   Overcast
3:15 PM 39.2 °F 35.0 °F 39.2 °F 100% 30.16 in 7.0 mi North 5.8 mph - N/A   Overcast
3:35 PM 39.2 °F 35.0 °F 39.2 °F 100% 30.17 in 6.0 mi North 5.8 mph - N/A   Overcast
3:55 PM 39.2 °F 35.0 °F 39.2 °F 100% 30.17 in 6.0 mi North 5.8 mph - N/A   Overcast
4:15 PM 39.2 °F - 39.2 °F 100% 30.17 in 6.0 mi Calm Calm - N/A   Overcast
4:35 PM 39.2 °F 35.0 °F 39.2 °F 100% 30.17 in 6.0 mi North 5.8 mph - N/A   Overcast
4:55 PM 39.2 °F 35.0 °F 39.2 °F 100% 30.18 in 5.0 mi North 5.8 mph - N/A   Overcast
5:15 PM 39.2 °F 35.9 °F 37.4 °F 93% 30.18 in 5.0 mi North 4.6 mph - N/A   Overcast
5:35 PM 39.2 °F 37.0 °F 37.4 °F 93% 30.19 in 6.0 mi NNE 3.5 mph - N/A   Overcast
5:55 PM 39.2 °F 37.0 °F 37.4 °F 93% 30.20 in 6.0 mi NNE 3.5 mph - N/A   Overcast
6:15 PM 39.2 °F 35.9 °F 37.4 °F 93% 30.21 in 6.0 mi NNE 4.6 mph - N/A   Overcast
6:35 PM 39.2 °F 35.9 °F 37.4 °F 93% 30.22 in 6.0 mi North 4.6 mph - N/A   Overcast
6:55 PM 39.2 °F 35.0 °F 37.4 °F 93% 30.22 in 5.0 mi NNE 5.8 mph - N/A   Overcast
7:35 PM 37.4 °F 33.8 °F 37.4 °F 100% 30.22 in 5.0 mi North 4.6 mph - N/A   Overcast
7:55 PM 37.4 °F 32.8 °F 35.6 °F 93% 30.23 in 4.0 mi NNE 5.8 mph - N/A   Overcast
8:15 PM 37.4 °F 32.8 °F 35.6 °F 93% 30.23 in 5.0 mi NNE 5.8 mph - N/A   Overcast
8:35 PM 37.4 °F 33.8 °F 35.6 °F 93% 30.23 in 4.0 mi NNE 4.6 mph - N/A   Overcast
8:55 PM 37.4 °F 32.8 °F 35.6 °F 93% 30.24 in 3.0 mi NE 5.8 mph - N/A   Overcast
9:15 PM 35.6 °F - 35.6 °F 100% 30.23 in 4.0 mi Calm Calm - N/A   Overcast
9:35 PM 35.6 °F 31.7 °F 35.6 °F 100% 30.22 in 4.0 mi NNE 4.6 mph - N/A   Overcast
9:55 PM 35.6 °F 30.7 °F 35.6 °F 100% 30.24 in 4.0 mi ENE 5.8 mph - N/A   Overcast
10:15 PM 35.6 °F 30.7 °F 33.8 °F 93% 30.26 in 5.0 mi NNE 5.8 mph - N/A   Overcast
10:55 PM 35.6 °F 30.7 °F 33.8 °F 93% 30.25 in 5.0 mi NE 5.8 mph - N/A   Overcast
11:15 PM 35.6 °F 31.7 °F 33.8 °F 93% 30.26 in 5.0 mi NE 4.6 mph - N/A   Overcast
11:35 PM 35.6 °F - 32.0 °F 87% 30.27 in 5.0 mi Calm Calm - N/A   Scattered Clouds
11:55 PM 33.8 °F 30.8 °F 32.0 °F 93% 30.26 in 4.0 mi ENE 3.5 mph - N/A   Clear